Torna al catalogo

STARLINK-5383

AttivoComunicazioniVLEO
NORAD 54827·PAYLOAD·🇺🇸 United States

Lanciato Dec 28, 2022 da Cape Canaveral Space Force Station

Loading…

Prossimi Passaggi (prossime 24 ore)

TLE

AggiornatoSource: CelesTrak SupGP

Epoca: Sep 14, 2026, 20:53 UTC

1 54827C 22177H   26257.87062500 -.00031387  00000+0 -11370-2 0  2579
2 54827  43.0011 147.8357 0000991 251.8626 127.3587 15.27588741    13

Traccia STARLINK-5383 in tempo reale con AllMySat

Download on the App Store